| time (UTC) | temp C | wind direction | speed KPH | gust KPH | rain 1hr cm | rain 24hr cm | rain mn cm | humidity % | barometer mb |
| 20260504100442 | 6 | 66 | 0.0 | 0.0 | 0.00 | 0.00 | 0.00 | 60 | 1012.9 |
| 20260504081835 | 6 | 89 | 0.0 | 6.4 | 0.00 | 0.00 | 0.00 | 58 | 1013.1 |
| 20260504081331 | 6 | 107 | 3.2 | 4.8 | 0.00 | 0.00 | 0.00 | 58 | 1013.2 |
| 20260504080827 | 6 | 93 | 1.6 | 3.2 | 0.00 | 0.00 | 0.00 | 57 | 1013.4 |
| 20260504080325 | 7 | 162 | 1.6 | 6.4 | 0.00 | 0.00 | 0.00 | 57 | 1013.4 |
| 20260504070252 | 8 | 76 | 0.0 | 3.2 | 0.00 | 0.00 | 0.00 | 49 | 1012.9 |
| 20260504060213 | 9 | 83 | 3.2 | 4.8 | 0.00 | 0.00 | 0.00 | 47 | 1013.1 |
| 20260504050640 | 9 | 119 | 3.2 | 4.8 | 0.00 | 0.00 | 0.00 | 47 | 1013.1 |
| 20260504050137 | 9 | 76 | 1.6 | 6.4 | 0.00 | 0.00 | 0.00 | 46 | 1013.2 |
| 20260504045634 | 9 | 114 | 4.8 | 4.8 | 0.00 | 0.00 | 0.00 | 46 | 1012.9 |
| 20260504045134 | 9 | 127 | 3.2 | 3.2 | 0.00 | 0.00 | 0.00 | 45 | 1013.1 |
| 20260504044632 | 10 | 125 | 3.2 | 3.2 | 0.00 | 0.00 | 0.00 | 45 | 1013.1 |
| 20260504044129 | 9 | 95 | 3.2 | 4.8 | 0.00 | 0.00 | 0.00 | 45 | 1013.1 |
| 20260504043626 | 9 | 145 | 1.6 | 3.2 | 0.00 | 0.00 | 0.00 | 45 | 1013.0 |
| 20260504043123 | 9 | 118 | 3.2 | 3.2 | 0.00 | 0.00 | 0.00 | 46 | 1013.1 |
| 20260504042620 | 9 | 62 | 0.0 | 4.8 | 0.00 | 0.00 | 0.00 | 45 | 1012.9 |
| 20260504042117 | 10 | 118 | 1.6 | 3.2 | 0.00 | 0.00 | 0.00 | 46 | 1012.8 |
| 20260504041613 | 9 | 101 | 1.6 | 3.2 | 0.00 | 0.00 | 0.00 | 45 | 1012.8 |
| 20260504041109 | 9 | 93 | 1.6 | 3.2 | 0.00 | 0.00 | 0.00 | 45 | 1012.8 |
| 20260504040607 | 9 | 77 | 1.6 | 3.2 | 0.00 | 0.00 | 0.00 | 45 | 1013.0 |
| 20260504040103 | 9 | 44 | 0.0 | 1.6 | 0.00 | 0.00 | 0.00 | 45 | 1013.0 |
| 20260504035600 | 9 | 103 | 1.6 | 3.2 | 0.00 | 0.00 | 0.00 | 44 | 1012.7 |
| 20260504035056 | 9 | 112 | 1.6 | 6.4 | 0.00 | 0.00 | 0.00 | 45 | 1012.9 |
| 20260504034554 | 9 | 61 | 1.6 | 4.8 | 0.00 | 0.00 | 0.00 | 44 | 1012.9 |
| 20260504034051 | 9 | 5 | 1.6 | 3.2 | 0.00 | 0.00 | 0.00 | 46 | 1012.8 |
| 20260504033549 | 9 | 109 | 1.6 | 3.2 | 0.00 | 0.00 | 0.00 | 44 | 1012.9 |
| 20260504033046 | 9 | 126 | 1.6 | 3.2 | 0.00 | 0.00 | 0.00 | 44 | 1012.8 |
| 20260504032543 | 9 | 113 | 0.0 | 1.6 | 0.00 | 0.00 | 0.00 | 44 | 1012.7 |
| 20260504032040 | 9 | 97 | 1.6 | 3.2 | 0.00 | 0.00 | 0.00 | 44 | 1012.8 |
| 20260504031537 | 9 | 89 | 3.2 | 3.2 | 0.00 | 0.00 | 0.00 | 44 | 1013.0 |
| 20260504031033 | 9 | 133 | 1.6 | 3.2 | 0.00 | 0.00 | 0.00 | 44 | 1012.8 |
| 20260504030530 | 9 | 66 | 0.0 | 3.2 | 0.00 | 0.00 | 0.00 | 44 | 1012.8 |
| 20260504030026 | 9 | 114 | 4.8 | 6.4 | 0.00 | 0.00 | 0.00 | 44 | 1012.8 |
| 20260504025524 | 9 | 107 | 3.2 | 3.2 | 0.00 | 0.00 | 0.00 | 44 | 1012.9 |
| 20260504025020 | 10 | 99 | 3.2 | 3.2 | 0.00 | 0.00 | 0.00 | 44 | 1012.8 |
| 20260504024517 | 10 | 108 | 3.2 | 4.8 | 0.00 | 0.00 | 0.00 | 43 | 1012.9 |
| 20260504024014 | 10 | 98 | 4.8 | 6.4 | 0.00 | 0.00 | 0.00 | 43 | 1013.0 |
| 20260504023511 | 10 | 46 | 3.2 | 3.2 | 0.00 | 0.00 | 0.00 | 43 | 1012.9 |
| 20260504023007 | 10 | 115 | 1.6 | 3.2 | 0.00 | 0.00 | 0.00 | 43 | 1012.7 |
| 20260504022503 | 10 | 88 | 3.2 | 3.2 | 0.00 | 0.00 | 0.00 | 44 | 1012.9 |
| 20260504021959 | 10 | 89 | 3.2 | 3.2 | 0.00 | 0.00 | 0.00 | 43 | 1012.8 |
| 20260504021457 | 10 | 99 | 3.2 | 4.8 | 0.00 | 0.00 | 0.00 | 43 | 1013.0 |
| 20260504020954 | 10 | 110 | 0.0 | 1.6 | 0.00 | 0.00 | 0.00 | 43 | 1013.0 |
| 20260504020450 | 10 | 67 | 1.6 | 3.2 | 0.00 | 0.00 | 0.00 | 43 | 1012.9 |
| 20260504015947 | 10 | 111 | 1.6 | 3.2 | 0.00 | 0.00 | 0.00 | 43 | 1012.9 |
| 20260504015443 | 10 | 118 | 3.2 | 3.2 | 0.00 | 0.00 | 0.00 | 43 | 1012.9 |
| 20260504014939 | 10 | 93 | 3.2 | 3.2 | 0.00 | 0.00 | 0.00 | 43 | 1012.8 |
| 20260504014435 | 10 | 102 | 0.0 | 3.2 | 0.00 | 0.00 | 0.00 | 43 | 1012.9 |
| 20260504013932 | 10 | 93 | 0.0 | 1.6 | 0.00 | 0.00 | 0.00 | 43 | 1013.0 |
| 20260504013431 | 10 | 97 | 0.0 | 3.2 | 0.00 | 0.00 | 0.00 | 43 | 1012.7 |
| 20260504012927 | 10 | 136 | 4.8 | 4.8 | 0.00 | 0.00 | 0.00 | 42 | 1012.6 |
| 20260504012425 | 10 | 135 | 3.2 | 3.2 | 0.00 | 0.00 | 0.00 | 41 | 1012.4 |
| 20260504011922 | 10 | 105 | 0.0 | 1.6 | 0.00 | 0.00 | 0.00 | 41 | 1012.6 |
| 20260504011419 | 10 | 114 | 0.0 | 3.2 | 0.00 | 0.00 | 0.00 | 41 | 1012.7 |
| 20260504010914 | 10 | 110 | 1.6 | 1.6 | 0.00 | 0.00 | 0.00 | 40 | 1012.5 |
| 20260504010411 | 10 | 52 | 1.6 | 1.6 | 0.00 | 0.00 | 0.00 | 40 | 1012.5 |
| 20260504005907 | 10 | 139 | 1.6 | 3.2 | 0.00 | 0.00 | 0.00 | 40 | 1012.4 |
| 20260504005404 | 10 | 61 | 1.6 | 1.6 | 0.00 | 0.00 | 0.00 | 40 | 1012.4 |
| 20260504004901 | 10 | 94 | 0.0 | 1.6 | 0.00 | 0.00 | 0.00 | 40 | 1012.4 |
| 20260504004359 | 11 | 121 | 1.6 | 3.2 | 0.00 | 0.00 | 0.00 | 40 | 1012.3 |
| 20260504003855 | 11 | 44 | 0.0 | 3.2 | 0.00 | 0.00 | 0.00 | 39 | 1012.2 |
| 20260504003352 | 11 | 144 | 0.0 | 3.2 | 0.00 | 0.00 | 0.00 | 39 | 1012.2 |
| 20260504002849 | 11 | 103 | 0.0 | 0.0 | 0.00 | 0.00 | 0.00 | 38 | 1012.2 |
| 20260504002346 | 11 | 77 | 0.0 | 1.6 | 0.00 | 0.00 | 0.00 | 38 | 1012.2 |
| 20260504001843 | 11 | 66 | 0.0 | 1.6 | 0.00 | 0.00 | 0.00 | 39 | 1012.0 |
| 20260504001340 | 11 | 87 | 0.0 | 1.6 | 0.00 | 0.00 | 0.00 | 39 | 1012.0 |
| 20260504000837 | 11 | 55 | 0.0 | 1.6 | 0.00 | 0.00 | 0.00 | 39 | 1011.7 |
| 20260504000334 | 11 | 141 | 0.0 | 1.6 | 0.00 | 0.00 | 0.00 | 38 | 1012.0 |
| 20260503235832 | 12 | 143 | 1.6 | 3.2 | 0.00 | 0.00 | 0.00 | 37 | 1011.8 |
| 20260503235329 | 12 | 89 | 0.0 | 1.6 | 0.00 | 0.00 | 0.00 | 38 | 1011.8 |
| 20260503234826 | 12 | 140 | 1.6 | 1.6 | 0.00 | 0.00 | 0.00 | 39 | 1012.0 |
| 20260503234324 | 12 | 157 | 0.0 | 1.6 | 0.00 | 0.00 | 0.00 | 38 | 1011.7 |
| 20260503233822 | 12 | 113 | 0.0 | 1.6 | 0.00 | 0.00 | 0.00 | 37 | 1011.6 |
| 20260503233317 | 12 | 203 | 3.2 | 3.2 | 0.00 | 0.00 | 0.00 | 36 | 1012.0 |
| 20260503232814 | 12 | 129 | 1.6 | 3.2 | 0.00 | 0.00 | 0.00 | 36 | 1011.8 |
| 20260503232312 | 12 | 89 | 0.0 | 1.6 | 0.00 | 0.00 | 0.00 | 38 | 1011.7 |
| 20260503231810 | 13 | 99 | 0.0 | 3.2 | 0.00 | 0.00 | 0.00 | 37 | 1011.7 |
| 20260503231306 | 13 | 269 | 0.0 | 3.2 | 0.00 | 0.00 | 0.00 | 38 | 1011.8 |
| 20260503230802 | 13 | 38 | 0.0 | 4.8 | 0.00 | 0.00 | 0.00 | 36 | 1011.8 |
| 20260503230259 | 13 | 262 | 3.2 | 3.2 | 0.00 | 0.00 | 0.00 | 38 | 1011.5 |
| 20260503225757 | 13 | 130 | 0.0 | 1.6 | 0.00 | 0.00 | 0.00 | 37 | 1011.7 |
| 20260503225252 | 13 | 114 | 0.0 | 3.2 | 0.00 | 0.00 | 0.00 | 36 | 1011.8 |
| 20260503224749 | 13 | 129 | 0.0 | 1.6 | 0.00 | 0.00 | 0.00 | 35 | 1011.7 |
| 20260503224247 | 13 | 3 | 3.2 | 8.0 | 0.00 | 0.00 | 0.00 | 34 | 1011.5 |
| 20260503223744 | 13 | 282 | 3.2 | 6.4 | 0.00 | 0.00 | 0.00 | 35 | 1011.8 |
| 20260503223242 | 13 | 34 | 1.6 | 3.2 | 0.00 | 0.00 | 0.00 | 35 | 1011.8 |
| 20260503222737 | 13 | 184 | 0.0 | 4.8 | 0.00 | 0.00 | 0.00 | 35 | 1011.7 |
| 20260503222236 | 13 | 352 | 3.2 | 6.4 | 0.00 | 0.00 | 0.00 | 34 | 1011.6 |
| 20260503221734 | 13 | 190 | 3.2 | 6.4 | 0.00 | 0.00 | 0.00 | 36 | 1011.5 |
| 20260503221231 | 13 | 334 | 3.2 | 11.3 | 0.00 | 0.00 | 0.00 | 35 | 1011.7 |
| 20260503220727 | 13 | 346 | 6.4 | 8.0 | 0.00 | 0.00 | 0.00 | 34 | 1011.8 |
| 20260503220225 | 13 | 291 | 0.0 | 6.4 | 0.00 | 0.00 | 0.00 | 34 | 1011.6 |
| 20260503215721 | 13 | 352 | 4.8 | 6.4 | 0.00 | 0.00 | 0.00 | 33 | 1011.8 |
| 20260503215219 | 13 | 25 | 0.0 | 9.7 | 0.00 | 0.00 | 0.00 | 34 | 1011.7 |
| 20260503214717 | 13 | 88 | 0.0 | 3.2 | 0.00 | 0.00 | 0.00 | 34 | 1011.8 |
| 20260503214213 | 13 | 188 | 3.2 | 6.4 | 0.00 | 0.00 | 0.00 | 35 | 1011.5 |
| 20260503213711 | 13 | 329 | 3.2 | 9.7 | 0.00 | 0.00 | 0.00 | 34 | 1011.6 |
| 20260503213208 | 13 | 51 | 4.8 | 9.7 | 0.00 | 0.00 | 0.00 | 33 | 1011.7 |
| 20260503212705 | 14 | 296 | 9.7 | 9.7 | 0.00 | 0.00 | 0.00 | 33 | 1011.4 |
| 20260503212202 | 13 | 345 | 6.4 | 16.1 | 0.00 | 0.00 | 0.00 | 33 | 1011.5 |
| 20260503211700 | 13 | 157 | 4.8 | 9.7 | 0.00 | 0.00 | 0.00 | 34 | 1011.8 |
| 20260503211155 | 13 | 150 | 3.2 | 6.4 | 0.00 | 0.00 | 0.00 | 34 | 1011.6 |
| 20260503210652 | 13 | 212 | 6.4 | 12.9 | 0.00 | 0.00 | 0.00 | 33 | 1011.7 |
| 20260503210149 | 14 | 350 | 11.3 | 12.9 | 0.00 | 0.00 | 0.00 | 32 | 1011.6 |
| 20260503205644 | 14 | 20 | 4.8 | 9.7 | 0.00 | 0.00 | 0.00 | 33 | 1011.4 |
| 20260503205141 | 13 | 150 | 1.6 | 6.4 | 0.00 | 0.00 | 0.00 | 33 | 1011.6 |
| 20260503204637 | 14 | 14 | 9.7 | 11.3 | 0.00 | 0.00 | 0.00 | 31 | 1011.6 |
| 20260503204135 | 15 | 24 | 1.6 | 9.7 | 0.00 | 0.00 | 0.00 | 31 | 1011.6 |
| 20260503203632 | 15 | 335 | 6.4 | 9.7 | 0.00 | 0.00 | 0.00 | 30 | 1011.6 |
| 20260503203129 | 15 | 197 | 1.6 | 6.4 | 0.00 | 0.00 | 0.00 | 32 | 1011.4 |
| 20260503202627 | 13 | 0 | 1.6 | 9.7 | 0.00 | 0.00 | 0.00 | 32 | 1011.6 |
| 20260503202124 | 13 | 13 | 0.0 | 3.2 | 0.00 | 0.00 | 0.00 | 32 | 1011.7 |
| 20260503201622 | 13 | 251 | 3.2 | 8.0 | 0.00 | 0.00 | 0.00 | 32 | 1011.7 |
| 20260503201119 | 13 | 356 | 6.4 | 14.5 | 0.00 | 0.00 | 0.00 | 31 | 1011.8 |
| 20260503200616 | 13 | 311 | 3.2 | 17.7 | 0.00 | 0.00 | 0.00 | 30 | 1011.8 |
| 20260503200112 | 14 | 340 | 6.4 | 6.4 | 0.00 | 0.00 | 0.00 | 29 | 1011.6 |
| 20260503195609 | 13 | 84 | 3.2 | 4.8 | 0.00 | 0.00 | 0.00 | 30 | 1011.7 |
| 20260503195106 | 13 | 23 | 1.6 | 12.9 | 0.00 | 0.00 | 0.00 | 30 | 1011.8 |
| 20260503194603 | 13 | 23 | 3.2 | 14.5 | 0.00 | 0.00 | 0.00 | 31 | 1012.0 |
| 20260503194058 | 13 | 343 | 11.3 | 11.3 | 0.00 | 0.00 | 0.00 | 30 | 1012.1 |
| 20260503193555 | 14 | 328 | 9.7 | 14.5 | 0.00 | 0.00 | 0.00 | 28 | 1011.8 |
| 20260503193050 | 14 | 322 | 6.4 | 12.9 | 0.00 | 0.00 | 0.00 | 28 | 1012.2 |
| 20260503192546 | 14 | 113 | 12.9 | 14.5 | 0.00 | 0.00 | 0.00 | 29 | 1012.3 |
| 20260503192043 | 14 | 283 | 6.4 | 9.7 | 0.00 | 0.00 | 0.00 | 28 | 1012.2 |
| 20260503191539 | 15 | 265 | 3.2 | 6.4 | 0.00 | 0.00 | 0.00 | 29 | 1012.4 |
| 20260503191036 | 14 | 203 | 1.6 | 6.4 | 0.00 | 0.00 | 0.00 | 29 | 1012.4 |
| 20260503190533 | 15 | 312 | 1.6 | 6.4 | 0.00 | 0.00 | 0.00 | 28 | 1012.4 |
| 20260503190030 | 14 | 300 | 4.8 | 9.7 | 0.00 | 0.00 | 0.00 | 29 | 1012.6 |
| 20260503185527 | 13 | 269 | 1.6 | 3.2 | 0.00 | 0.00 | 0.00 | 29 | 1012.7 |
| 20260503185026 | 14 | 306 | 6.4 | 9.7 | 0.00 | 0.00 | 0.00 | 28 | 1012.7 |
| 20260503184523 | 14 | 105 | 3.2 | 8.0 | 0.00 | 0.00 | 0.00 | 30 | 1012.8 |
| 20260503184020 | 13 | 129 | 8.0 | 8.0 | 0.00 | 0.00 | 0.00 | 30 | 1012.8 |
| 20260503183516 | 13 | 341 | 9.7 | 12.9 | 0.00 | 0.00 | 0.00 | 28 | 1013.1 |
| 20260503183013 | 14 | 239 | 3.2 | 17.7 | 0.00 | 0.00 | 0.00 | 28 | 1013.0 |
| 20260503182512 | 13 | 332 | 3.2 | 9.7 | 0.00 | 0.00 | 0.00 | 29 | 1012.9 |
| 20260503182009 | 13 | 328 | 11.3 | 14.5 | 0.00 | 0.00 | 0.00 | 28 | 1013.0 |
| 20260503181506 | 13 | 342 | 11.3 | 14.5 | 0.00 | 0.00 | 0.00 | 30 | 1013.1 |
| 20260503181002 | 13 | 327 | 6.4 | 22.5 | 0.00 | 0.00 | 0.00 | 30 | 1013.4 |
| 20260503180500 | 13 | 208 | 3.2 | 4.8 | 0.00 | 0.00 | 0.00 | 30 | 1013.1 |
| 20260503175957 | 12 | 203 | 3.2 | 8.0 | 0.00 | 0.00 | 0.00 | 35 | 1013.4 |
| 20260503175455 | 12 | 262 | 6.4 | 14.5 | 0.00 | 0.00 | 0.00 | 32 | 1013.3 |
| 20260503174950 | 12 | 205 | 6.4 | 6.4 | 0.00 | 0.00 | 0.00 | 33 | 1013.4 |
| 20260503174449 | 12 | 348 | 4.8 | 6.4 | 0.00 | 0.00 | 0.00 | 32 | 1013.7 |
| 20260503173944 | 11 | 278 | 6.4 | 14.5 | 0.00 | 0.00 | 0.00 | 33 | 1013.6 |
| 20260503173440 | 12 | 177 | 1.6 | 6.4 | 0.00 | 0.00 | 0.00 | 33 | 1013.7 |
| 20260503172937 | 11 | 326 | 1.6 | 8.0 | 0.00 | 0.00 | 0.00 | 33 | 1013.6 |
| 20260503172434 | 11 | 168 | 4.8 | 9.7 | 0.00 | 0.00 | 0.00 | 35 | 1014.0 |
| 20260503171930 | 10 | 239 | 3.2 | 8.0 | 0.00 | 0.00 | 0.00 | 36 | 1013.9 |
| 20260503171427 | 10 | 337 | 3.2 | 11.3 | 0.00 | 0.00 | 0.00 | 35 | 1013.9 |
| 20260503170925 | 11 | 202 | 0.0 | 17.7 | 0.00 | 0.00 | 0.00 | 31 | 1014.2 |
| 20260503170421 | 12 | 32 | 3.2 | 6.4 | 0.00 | 0.00 | 0.00 | 33 | 1013.9 |
| 20260503150813 | 8 | 4 | 9.7 | 27.4 | 0.00 | 0.00 | 0.00 | 36 | 1014.5 |
| 20260503150309 | 10 | 328 | 8.0 | 22.5 | 0.00 | 0.00 | 0.00 | 34 | 1014.5 |
| 20260503140234 | 7 | 258 | 3.2 | 9.7 | 0.00 | 0.00 | 0.00 | 46 | 1014.9 |
| 20260503131203 | 6 | 0 | 3.2 | 4.8 | 0.00 | 0.00 | 0.00 | 55 | 1015.1 |
| 20260503130701 | 6 | 5 | 4.8 | 14.5 | 0.00 | 0.00 | 0.00 | 51 | 1015.0 |
| 20260503130158 | 8 | 184 | 4.8 | 6.4 | 0.00 | 0.00 | 0.00 | 50 | 1014.9 |
| 20260503120123 | 5 | 85 | 3.2 | 4.8 | 0.00 | 0.00 | 0.00 | 67 | 1015.1 |
| 20260503110551 | 3 | 192 | 3.2 | 6.4 | 0.00 | 0.00 | 0.00 | 70 | 1014.8 |